| time (UTC) | temp F | wind direction | speed MPH | gust MPH | rain 1hr in | rain 24hr in | rain mn in | humidity % | barometer mb |
| 20260904000003 | 67 | 92 | 1.0 | 3.0 | 0.00 | 0.00 | 0.00 | 70 | 1013.7 |
| 20260903234502 | 66 | 172 | 0.0 | 7.0 | 0.00 | 0.00 | 0.00 | 71 | 1013.9 |
| 20260903233003 | 67 | 152 | 0.0 | 3.0 | 0.00 | 0.00 | 0.00 | 71 | 1013.9 |
| 20260903231502 | 67 | 158 | 1.0 | 4.0 | 0.00 | 0.00 | 0.00 | 69 | 1014.0 |
| 20260903230004 | 67 | 160 | 1.0 | 4.0 | 0.00 | 0.00 | 0.00 | 69 | 1014.1 |
| 20260903224504 | 67 | 130 | 0.0 | 3.0 | 0.00 | 0.00 | 0.00 | 69 | 1014.4 |
| 20260903223002 | 67 | 145 | 1.0 | 3.0 | 0.00 | 0.00 | 0.00 | 69 | 1014.4 |
| 20260903221503 | 67 | 88 | 1.0 | 3.0 | 0.00 | 0.00 | 0.00 | 69 | 1014.6 |
| 20260903220008 | 67 | 166 | 1.0 | 5.0 | 0.00 | 0.00 | 0.00 | 69 | 1014.7 |
| 20260903214504 | 67 | 259 | 2.0 | 5.0 | 0.00 | 0.00 | 0.00 | 68 | 1014.9 |
| 20260903213002 | 67 | 208 | 1.0 | 4.0 | 0.00 | 0.00 | 0.00 | 67 | 1014.8 |
| 20260903211503 | 67 | 181 | 2.0 | 4.0 | 0.00 | 0.00 | 0.00 | 66 | 1014.9 |
| 20260903210003 | 68 | 162 | 1.0 | 4.0 | 0.00 | 0.00 | 0.00 | 66 | 1015.0 |
| 20260903204505 | 67 | 100 | 1.0 | 5.0 | 0.00 | 0.00 | 0.00 | 66 | 1015.0 |
| 20260903203003 | 67 | 175 | 1.0 | 5.0 | 0.00 | 0.00 | 0.00 | 66 | 1015.1 |
| 20260903201504 | 67 | 79 | 1.0 | 4.0 | 0.00 | 0.00 | 0.00 | 67 | 1015.2 |
| 20260903200002 | 67 | 178 | 2.0 | 4.0 | 0.00 | 0.00 | 0.00 | 66 | 1015.4 |
| 20260903194503 | 68 | 150 | 2.0 | 4.0 | 0.00 | 0.00 | 0.00 | 65 | 1015.6 |
| 20260903193003 | 67 | 197 | 2.0 | 6.0 | 0.00 | 0.00 | 0.00 | 64 | 1015.8 |
| 20260903191604 | 67 | 169 | 1.0 | 4.0 | 0.00 | 0.00 | 0.00 | 64 | 1015.7 |
| 20260903190002 | 66 | 187 | 1.0 | 4.0 | 0.00 | 0.00 | 0.00 | 63 | 1016.0 |
| 20260903184502 | 66 | 154 | 1.0 | 6.0 | 0.00 | 0.00 | 0.00 | 64 | 1016.1 |
| 20260903183003 | 66 | 65 | 1.0 | 7.0 | 0.00 | 0.00 | 0.00 | 63 | 1016.1 |
| 20260903181502 | 66 | 172 | 1.0 | 3.0 | 0.00 | 0.00 | 0.00 | 63 | 1016.1 |
| 20260903180003 | 66 | 211 | 1.0 | 3.0 | 0.00 | 0.00 | 0.00 | 63 | 1016.0 |
| 20260903174502 | 65 | 144 | 1.0 | 3.0 | 0.00 | 0.00 | 0.00 | 65 | 1016.2 |
| 20260903173010 | 64 | 172 | 1.0 | 4.0 | 0.00 | 0.00 | 0.00 | 65 | 1016.3 |
| 20260903171502 | 64 | 108 | 1.0 | 3.0 | 0.00 | 0.00 | 0.00 | 66 | 1016.0 |
| 20260903170002 | 63 | 81 | 1.0 | 3.0 | 0.00 | 0.00 | 0.00 | 66 | 1016.4 |
| 20260903164502 | 62 | 49 | 1.0 | 4.0 | 0.00 | 0.00 | 0.00 | 66 | 1016.5 |
| 20260903163005 | 61 | 94 | 0.0 | 5.0 | 0.00 | 0.00 | 0.00 | 68 | 1016.3 |
| 20260903161606 | 61 | 70 | 0.0 | 5.0 | 0.00 | 0.00 | 0.00 | 68 | 1016.5 |
| 20260903160002 | 60 | 123 | 0.0 | 3.0 | 0.00 | 0.00 | 0.00 | 69 | 1016.7 |
| 20260903154503 | 60 | 152 | 0.0 | 4.0 | 0.00 | 0.00 | 0.00 | 70 | 1016.8 |
| 20260903153102 | 60 | 55 | 0.0 | 4.0 | 0.00 | 0.00 | 0.00 | 71 | 1016.8 |
| 20260903151502 | 59 | 88 | 1.0 | 5.0 | 0.00 | 0.00 | 0.00 | 72 | 1016.7 |
| 20260903150006 | 58 | 25 | 1.0 | 6.0 | 0.00 | 0.00 | 0.00 | 74 | 1016.6 |
| 20260903144503 | 58 | 89 | 0.0 | 3.0 | 0.00 | 0.00 | 0.00 | 75 | 1016.7 |
| 20260903143004 | 58 | 108 | 1.0 | 4.0 | 0.00 | 0.00 | 0.00 | 75 | 1016.4 |
| 20260903141502 | 58 | 33 | 1.0 | 4.0 | 0.00 | 0.00 | 0.00 | 76 | 1016.3 |
| 20260903140002 | 58 | 41 | 0.0 | 4.0 | 0.00 | 0.00 | 0.00 | 76 | 1016.3 |
| 20260903134611 | 58 | 48 | 0.0 | 5.0 | 0.00 | 0.00 | 0.00 | 75 | 1016.2 |
| 20260903133101 | 58 | 50 | 1.0 | 2.0 | 0.00 | 0.00 | 0.00 | 74 | 1016.2 |
| 20260903131503 | 58 | 63 | 0.0 | 4.0 | 0.00 | 0.00 | 0.00 | 74 | 1016.4 |
| 20260903130002 | 58 | 185 | 0.0 | 1.0 | 0.00 | 0.00 | 0.00 | 73 | 1016.3 |
| 20260903124501 | 58 | 29 | 1.0 | 3.0 | 0.00 | 0.00 | 0.00 | 72 | 1016.3 |
| 20260903123100 | 59 | 68 | 1.0 | 3.0 | 0.00 | 0.00 | 0.00 | 71 | 1016.3 |
| 20260903123002 | 59 | 28 | 1.0 | 3.0 | 0.00 | 0.00 | 0.00 | 71 | 1016.2 |
| 20260903121501 | 59 | 106 | 0.0 | 2.0 | 0.00 | 0.00 | 0.00 | 71 | 1016.3 |
| 20260903120003 | 59 | 54 | 0.0 | 2.0 | 0.00 | 0.00 | 0.00 | 70 | 1016.6 |
| 20260903114502 | 60 | 91 | 0.0 | 3.0 | 0.00 | 0.00 | 0.00 | 71 | 1016.7 |
| 20260903113002 | 60 | 211 | 0.0 | 3.0 | 0.00 | 0.00 | 0.00 | 71 | 1016.7 |
| 20260903111502 | 60 | 5 | 0.0 | 5.0 | 0.00 | 0.00 | 0.00 | 71 | 1016.7 |
| 20260903110001 | 60 | 40 | 1.0 | 5.0 | 0.00 | 0.00 | 0.00 | 71 | 1016.7 |
| 20260903104502 | 60 | 56 | 1.0 | 4.0 | 0.00 | 0.00 | 0.00 | 71 | 1016.8 |
| 20260903103002 | 60 | 64 | 1.0 | 5.0 | 0.00 | 0.00 | 0.00 | 71 | 1016.7 |
| 20260903101504 | 60 | 70 | 0.0 | 4.0 | 0.00 | 0.00 | 0.00 | 71 | 1016.8 |
| 20260903100003 | 60 | 80 | 1.0 | 4.0 | 0.00 | 0.00 | 0.00 | 71 | 1016.9 |
| 20260903094502 | 60 | 58 | 1.0 | 3.0 | 0.00 | 0.00 | 0.00 | 71 | 1017.1 |
| 20260903093007 | 60 | 53 | 0.0 | 2.0 | 0.00 | 0.00 | 0.00 | 72 | 1017.2 |
| 20260903091502 | 60 | 31 | 1.0 | 3.0 | 0.00 | 0.00 | 0.00 | 72 | 1017.3 |
| 20260903090002 | 59 | 37 | 0.0 | 2.0 | 0.00 | 0.00 | 0.00 | 74 | 1017.3 |
| 20260903084503 | 59 | 35 | 1.0 | 3.0 | 0.00 | 0.00 | 0.00 | 74 | 1017.4 |
| 20260903083002 | 59 | 38 | 0.0 | 2.0 | 0.00 | 0.00 | 0.00 | 75 | 1017.4 |
| 20260903081506 | 59 | 23 | 0.0 | 1.0 | 0.00 | 0.00 | 0.00 | 74 | 1017.3 |
| 20260903080002 | 59 | 23 | 0.0 | 1.0 | 0.00 | 0.00 | 0.00 | 74 | 1017.2 |
| 20260903074502 | 59 | 21 | 0.0 | 2.0 | 0.00 | 0.00 | 0.00 | 74 | 1017.2 |
| 20260903073002 | 59 | 50 | 0.0 | 3.0 | 0.00 | 0.00 | 0.00 | 74 | 1017.4 |
| 20260903071502 | 59 | 46 | 0.0 | 2.0 | 0.00 | 0.00 | 0.00 | 75 | 1017.4 |
| 20260903070008 | 59 | 58 | 0.0 | 2.0 | 0.00 | 0.00 | 0.00 | 74 | 1017.5 |
| 20260903064503 | 59 | 41 | 0.0 | 2.0 | 0.00 | 0.00 | 0.00 | 74 | 1017.2 |
| 20260903063005 | 59 | 37 | 1.0 | 2.0 | 0.00 | 0.00 | 0.00 | 75 | 1017.4 |
| 20260903061504 | 59 | 54 | 0.0 | 2.0 | 0.00 | 0.00 | 0.00 | 75 | 1017.5 |
| 20260903060006 | 59 | 64 | 0.0 | 2.0 | 0.00 | 0.00 | 0.00 | 74 | 1017.6 |
| 20260903054503 | 59 | 52 | 0.0 | 0.0 | 0.00 | 0.00 | 0.00 | 74 | 1017.6 |
| 20260903053006 | 59 | 52 | 0.0 | 0.0 | 0.00 | 0.00 | 0.00 | 74 | 1017.7 |
| 20260903051503 | 60 | 52 | 0.0 | 0.0 | 0.00 | 0.00 | 0.00 | 73 | 1017.7 |
| 20260903050006 | 61 | 52 | 0.0 | 0.0 | 0.00 | 0.00 | 0.00 | 71 | 1017.7 |
| 20260903044502 | 62 | 52 | 0.0 | 0.0 | 0.00 | 0.00 | 0.00 | 70 | 1017.7 |
| 20260903043007 | 62 | 45 | 0.0 | 0.0 | 0.00 | 0.00 | 0.00 | 69 | 1017.6 |
| 20260903041502 | 62 | 68 | 0.0 | 0.0 | 0.00 | 0.00 | 0.00 | 68 | 1017.6 |
| 20260903040003 | 63 | 68 | 0.0 | 1.0 | 0.00 | 0.00 | 0.00 | 67 | 1017.5 |
| 20260903034501 | 65 | 96 | 0.0 | 1.0 | 0.00 | 0.00 | 0.00 | 64 | 1017.2 |
| 20260903033103 | 66 | 96 | 0.0 | 0.0 | 0.00 | 0.00 | 0.00 | 62 | 1017.0 |
| 20260903031506 | 66 | 96 | 0.0 | 0.0 | 0.00 | 0.00 | 0.00 | 61 | 1016.8 |
| 20260903030003 | 67 | 168 | 0.0 | 0.0 | 0.00 | 0.00 | 0.00 | 59 | 1016.7 |
| 20260903024503 | 68 | 169 | 0.0 | 2.0 | 0.00 | 0.00 | 0.00 | 58 | 1016.8 |
| 20260903023130 | 69 | 199 | 1.0 | 3.0 | 0.00 | 0.00 | 0.00 | 56 | 1016.9 |
| 20260903021508 | 70 | 206 | 0.0 | 3.0 | 0.00 | 0.00 | 0.00 | 53 | 1017.0 |
| 20260903020107 | 70 | 168 | 1.0 | 6.0 | 0.00 | 0.00 | 0.00 | 53 | 1017.1 |
| 20260903014502 | 71 | 192 | 2.0 | 5.0 | 0.00 | 0.00 | 0.00 | 52 | 1017.0 |
| 20260903013010 | 71 | 193 | 2.0 | 7.0 | 0.00 | 0.00 | 0.00 | 51 | 1017.0 |
| 20260903011505 | 71 | 141 | 1.0 | 4.0 | 0.00 | 0.00 | 0.00 | 54 | 1017.2 |
| 20260903004502 | 72 | 185 | 3.0 | 8.0 | 0.00 | 0.00 | 0.00 | 52 | 1017.2 |
| 20260903003003 | 72 | 158 | 2.0 | 5.0 | 0.00 | 0.00 | 0.00 | 52 | 1017.4 |
| 20260903001504 | 72 | 193 | 0.0 | 4.0 | 0.00 | 0.00 | 0.00 | 51 | 1017.6 |